Location: Unspecified
(0.0000°N, 0.0000°E)
Time: 16:40:22
(UTC+00:00)

Transit 4A - Pass Details

Date: 25 November 2019
Orbit: 870 x 975 km, 66.8° (Epoch: 13 December)

Event Time Altitude Azimuth Distance (km) Brightness Sun altitude
Rises 19:22:03 0° 214° (SW) 3,668 11.9 -22.1°
Reaches altitude 10° 19:24:46 10° 221° (SW) 2,718 11.2 -22.8°
Maximum altitude 19:30:41 41° 289° (WNW) 1,361 9.1 -24.1°
Enters shadow 19:35:44 14° 355° (N) 2,411 9.9 -25.3°
Drops below altitude 10° 19:36:33 10° 358° (N) 2,677 - -25.5°
Sets 19:39:13 0° 6° (N) 3,607 - -26.1°
